This is the latest recevied weather packets stored in our database for station/object N3WMC. If no packets are shown the sender has not sent any weather packets the latest 10 day(s).
| Time | Temp. | Humidity | Pressure | Rain* | Wind** | Luminosity | Snow |
|---|---|---|---|---|---|---|---|
| 1787445398 | 17.78° C | 98% | 1012 hPa | 0 mm | - | 0 W/m² | - |
| 1787445093 | 17.78° C | 98% | 1012 hPa | 0 mm | - | 0 W/m² | - |
| 1787444789 | 18.33° C | 98% | 1012.1 hPa | 0 mm | - | 0 W/m² | - |
| 1787444486 | 18.33° C | 99% | 1012.6 hPa | 0 mm | - | 0 W/m² | - |
| 1787444185 | 18.33° C | 99% | 1012.8 hPa | 0 mm | - | 0 W/m² | - |
| 1787443880 | 18.33° C | 99% | 1012.3 hPa | 0 mm | - | 0 W/m² | - |
| 1787443579 | 18.33° C | 99% | 1012.3 hPa | 0 mm | - | 0 W/m² | - |
| 1787443274 | 18.33° C | 99% | 1012.4 hPa | 0 mm | - | 1 W/m² | - |
| 1787442974 | 18.33° C | 99% | 1011.8 hPa | 0 mm | - | 2 W/m² | - |
| 1787442670 | 18.33° C | 99% | 1012 hPa | 0 mm | - | 4 W/m² | - |
| 1787442366 | 18.33° C | 99% | 1012.1 hPa | 1.27 mm | - | 5 W/m² | - |
| 1787442065 | 18.33° C | 99% | 1012.1 hPa | 1.27 mm | - | 5 W/m² | - |
| 1787441760 | 18.33° C | 99% | 1011.9 hPa | 0 mm | - | 5 W/m² | - |
| 1787441456 | 18.33° C | 98% | 1011.9 hPa | 0 mm | - | 4 W/m² | - |
| 1787441151 | 18.33° C | 98% | 1012 hPa | 1.78 mm | - | 4 W/m² | - |
| 1787440847 | 18.33° C | 98% | 1012.3 hPa | 1.78 mm | - | 4 W/m² | - |
| 1787440547 | 18.33° C | 98% | 1012.4 hPa | 1.27 mm | - | 4 W/m² | - |
| 1787440243 | 18.33° C | 98% | 1012.5 hPa | 4.83 mm | - | 4 W/m² | - |
| 1787439939 | 18.33° C | 98% | 1012.8 hPa | 6.6 mm | - | 4 W/m² | - |
| 1787439635 | 18.33° C | 98% | 1012.8 hPa | 6.1 mm | - | 4 W/m² | - |
| 1787439331 | 18.33° C | 98% | 1013.1 hPa | 6.1 mm | - | 4 W/m² | - |
| 1787439026 | 18.33° C | 98% | 1013.2 hPa | 6.1 mm | - | 4 W/m² | - |
| 1787438721 | 18.33° C | 98% | 1013.1 hPa | 7.87 mm | - | 4 W/m² | - |
| 1787438420 | 18.33° C | 97% | 1013.1 hPa | 6.6 mm | - | 3 W/m² | - |
| 1787438115 | 18.33° C | 97% | 1012.9 hPa | 6.1 mm | - | 3 W/m² | - |
* Rain latest hour (hover to see other rain measurements)
** Current wind speed in m/s (hover to see current wind gust speed)